Regional Weather Roundup
Issued by NWS Green Bay, WI

Home | Current Version | Previous Version | Graphics & Text | Print | Product List | Glossary Off
Versions: 1 2 3 4 5 6 7 8 9 10 11 12 13 14 15 16 17 18 19 20 21 22 23 24 25 26 27 28 29 30 31 32 33 34 35 36 37 38 39 40 41 42 43 44 45 46 47 48 49 50

000
ASUS43 KGRB 290811
RWRGRB

NORTH-CENTRAL AND NORTHEAST WISCONSIN REGIONAL WEATHER ROUNDUP
NATIONAL WEATHER SERVICE GREEN BAY WI
300 AM CDT FRI APR 29 2016

WIZ005-009-010>012-018-019-290900-
NORTH CENTRAL WISCONSIN

CITY           SKY/WX    TMP DP  RH WIND       PRES   REMARKS
IRONWOOD       CLOUDY    30  30 100 CALM      30.09R
MANITOWISH WTR CLOUDY    38  36  94 S7        30.10R
ARBOR VITAE    LGT RAIN  39  37  91 SW3       30.10S
EAGLE RIVER    DRIZZLE   37  32  82 SW3       30.09F
LAND O LAKES   CLOUDY    39  33  78 CALM      30.10S
RHINELANDER    CLOUDY    37  35  92 CALM      30.10S
PHILLIPS       CLOUDY    37  35  90 S3        30.11S
ANTIGO         CLOUDY    35  35  98 NE3       30.09S
TOMAHAWK       CLOUDY    36  35  95 CALM      30.11S
MERRILL        CLOUDY    37  37  99 CALM      30.11S
$$

WIZ013-073-290900-
NORTHEAST WISCONSIN

CITY           SKY/WX    TMP DP  RH WIND       PRES   REMARKS
IRON MOUNTAIN  CLOUDY    39  25  57 N8        30.09S
MARINETTE      CLOUDY    43  27  52 N3        30.08S
OCONTO         CLOUDY    41  32  70 N5        30.08S
$$

WIZ017-030-035>037-045-290900-
CENTRAL WISCONSIN

CITY           SKY/WX    TMP DP  RH WIND       PRES   REMARKS
MEDFORD        CLOUDY    37  36  98 E5        30.10S
WAUSAU         CLOUDY    39  35  86 N3        30.08F
MOSINEE        CLOUDY    36  36 100 N6        30.10S
MARSHFIELD     CLOUDY    38  35  89 N7        30.08S
WISC RAPIDS    CLOUDY    39  34  82 CALM      30.10S
STEVENS POINT  CLOUDY    36  35  96 N7        30.09S
WAUPACA        CLOUDY    41  36  82 N6        30.08F
SHAWANO        CLOUDY    40  36  84 N8        30.09S
CLINTONVILLE   CLOUDY    39  34  81 N9        30.08S
WAUTOMA        NOT AVBL
$$

WIZ038-039-048-051-290900-
FOX VALLEY

CITY           SKY/WX    TMP DP  RH WIND       PRES   REMARKS
NWS GREEN BAY  CLOUDY    43  35  73 N3        30.08R
APPLETON       CLOUDY    39  32  75 N7        30.06S
OSHKOSH        CLOUDY    41  34  76 N8        30.06S
FOND DU LAC    CLOUDY    41  35  79 NW3       30.06R
$$

WIZ022-050-052-290900-
EAST CENTRAL WISCONSIN

CITY           SKY/WX    TMP DP  RH WIND       PRES   REMARKS
EPHRAIM        CLOUDY    39  32  75 NE6       30.07S
STURGEON BAY   CLOUDY    41  32  70 N6        30.09S
MANITOWOC      CLOUDY    42  32  67 MISG      30.07R
SHEBOYGAN      CLOUDY    40  35  83 E3        30.06R
$$

LMZ563-521-522-541>543-290900-
LAKESHORE

STATION/POSITION TIME  TEMP    WIND        PRES    VSBY  WAVE
                       AIR SEA DIR/SP/G                  HT/PER
                 (UTC) (F)     (DEG/KT/KT) (MB)    (MI)  (FT/S)
SHEBOYGAN LKSHOR 0800   40     100/  5/  6 1018.7R
KEWAUNEE LKSHORE 0700   41      10/  1/  3 1017.3F
ALGOMA MARINA    0745          360/  6/  7   N/A
NORTHPORT PIER   0700   41      70/  7/ 10 1019.0S
N MID LAKE BUOY  0750   39 38  110/  4/  4 1019.1S         1/ 3
CHAMBERS ISLAND  0700   41      20/  8/ 10 1019.0S
MENOMINEE LKSHOR 0700   43      30/  9/ 11 1017.6F
$$




USA.gov is the U.S. government's official web portal to all federal, state and local government web resources and services.